Salt Lake City International Airport Salt Lake City US
ICAO: KSLC
IATA: SLC
Category: Large
Scheduled Services: Yes

Elevation: 4227 ft
TransAlt. 18000 ft.

Airport Communications:
APP/DEP:121.1
ATIS:124.75
CLNC DEL:127.3
GND:121.9
ANG OPS:30.3
CEDAR CITY RDO:122.4
TWR:118.3
UNICOM:122.95

KSLC Zoom In..

If you have problems with the map follow the link
https://www.worldairports.se/pages/airport.php?
ICAO=KSLC

Runways:

(A) RW 14 length 4892 ft width 150 ft
---- / hdg 139

(B) RW 16L length 12004 ft width 150 ft
ILS 109.50 / hdg 161

(C) RW 16R length 12000 ft width 150 ft
ILS 111.90 / hdg 161

(D) RW 17 length 9596 ft width 150 ft
ILS 111.50 / hdg 166

(E) RW 32 length 4892 ft width 150 ft
---- / hdg 319

(F) RW 34L length 12000 ft width 150 ft
ILS 111.90 / hdg 341

(G) RW 34R length 12004 ft width 150 ft
ILS 109.50 / hdg 341

(H) RW 35 length 9596 ft width 150 ft
---- / hdg 346

Location; KSLC
Day. 19 / Time. 02.54 Zulu
* Altimeter: 30.46
* Temperature: -01° c. -30.2°f.
* Wind from: 000° Speed 00 kn.
Dewpoint: -04° c.
Visibility: 10 Statute Miles.
Clouds: Few 23000 ft.

KSLC 190254Z 00000KT 10SM FEW230 M01/M04 A3046 RMK AO2 SLP334 T10111044 51010


Wind - Calm.

 
 
jpsmedia worldairports.se 2020   terms of use